Temperature
18 18 18 18 18 18 18 18 18 18 17 17 17 17 17 17 17 17 17 17 17 17 17 17 17 17 17 16 16 16 16 16 16 16 16 16 16 16 16 16 16 16 16
18 18 18 18 18 18 18 18 18 18 17 17 17 17 17 17 17 17 17 17 17 17 17 17 17 17 16 16 16 16 16 16 16 16 16 16 16 16 16 16 16 16 16
18 18 18 18 18 18 18 18 18 18 17 17 17 17 17 17 17 17 17 17 17 17 17 17 17 16 16 16 16 16 16 16 16 16 16 16 16 16 16 16 16 16 15
18 18 18 18 18 18 18 18 18 17 17 17 17 17 17 17 17 17 17 17 17 17 17 17 16 16 16 16 16 16 16 16 16 16 16 16 16 16 16 16 16 15 15
18 18 18 18 18 18 18 18 18 17 17 17 17 17 17 17 17 17 17 17 17 17 17 17 16 16 16 16 16 16 16 16 16 16 16 16 16 16 16 16 16 15 15
18 18 18 18 18 18 18 18 18 17 17 17 17 17 17 17 17 17 17 17 17 17 16 16 16 16 16 16 16 16 16 16 16 16 16 16 16 16 16 15 15 15 15
18 18 18 18 18 18 18 18 18 17 17 17 17 17 17 17 17 17 17 17 17 16 16 16 16 16 16 16 16 16 16 16 16 16 16 16 16 15 15 15 15 15 15
18 18 18 18 18 18 18 18 18 17 17 17 17 17 17 17 17 17 17 17 17 16 16 16 16 16 16 16 16 16 16 16 16 16 16 15 15 15 15 15 15 15 15
18 18 18 18 18 18 18 18 18 18 17 17 17 17 17 17 17 17 17 17 16 16 16 16 16 16 16 16 16 16 16 16 16 16 15 15 15 15 15 15 15 15 15
18 18 18 18 18 18 17 17 17 17 17 17 17 17 17 17 17 16 16 16 16 16 16 16 16 16 16 16 16 16 16 16 16 15 15 15 15 15 15 15 15 15 15
18 18 18 18 18 18 17 17 17 17 17 17 17 17 17 17 17 17 16 16 16 16 16 16 16 16 16 16 16 16 15 15 15 15 15 15 15 15 15 15 15 15 14
18 18 18 18 18 18 18 18 17 17 17 17 17 17 17 17 17 17 16 16 16 16 16 16 16 16 16 16 16 15 15 15 15 15 15 15 15 15 15 15 14 14 14
18 18 18 18 18 18 18 18 18 17 17 17 17 17 17 17 17 17 17 17 16 16 16 16 16 16 16 16 16 15 15 15 15 15 15 15 15 15 14 14 14 14 14
18 18 18 18 18 18 18 18 18 17 17 17 17 17 17 17 17 17 17 17 16 16 16 16 16 16 16 16 15 15 15 15 15 15 15 15 15 14 14 14 14 14 14
18 18 18 18 18 18 17 17 17 17 17 17 17 17 17 17 17 17 17 17 17 16 16 16 16 16 16 16 15 15 15 15 15 15 15 15 14 14 14 14 14 14 14
18 18 18 18 18 18 17 17 17 17 17 17 17 17 17 17 17 17 17 17 16 16 16 16 16 16 16 15 15 15 15 15 15 15 15 14 14 14 14 14 14 14 14
18 18 18 18 17 17 17 17 17 17 17 17 17 17 17 17 16 16 16 16 16 16 16 16 16 16 15 15 15 15 15 15 15 15 15 14 14 14 14 14 14 13 13
18 18 18 18 17 17 17 17 17 17 17 17 17 16 17 16 16 16 16 16 16 16 16 16 16 15 15 15 15 15 15 15 15 15 14 14 14 14 14 14 13 13 13
18 18 17 17 17 17 17 17 17 17 17 17 16 16 16 16 16 16 16 16 16 16 16 16 16 15 15 15 15 15 15 15 15 14 14 14 14 14 14 14 13 13 13
18 17 17 17 17 17 17 17 17 16 16 16 16 16 16 16 16 16 16 16 16 16 16 15 15 15 15 15 15 15 15 15 14 14 14 14 14 14 14 13 13 13 13
17 17 17 17 17 17 17 17 17 16 16 16 16 16 16 16 16 16 16 16 15 15 15 15 15 15 15 15 15 14 14 14 14 14 14 14 14 14 13 13 13 13 13
17 17 17 17 17 17 17 17 17 16 16 16 16 16 16 15 15 15 15 15 15 15 15 15 15 15 15 15 14 14 14 14 14 14 14 14 14 14 13 13 13 13 12
17 17 17 17 17 17 17 17 16 16 16 16 16 16 15 15 15 15 15 15 15 15 15 14 14 14 14 14 14 14 14 14 14 14 13 14 14 13 13 13 13 12 12
17 17 17 17 17 17 17 17 16 16 16 16 16 15 15 15 15 15 15 15 15 15 14 14 14 14 14 14 14 14 14 14 14 13 13 13 13 13 13 13 12 12 12
17 17 17 17 17 17 16 16 16 16 16 16 16 15 15 15 15 15 15 15 15 15 14 14 14 14 14 14 14 14 14 13 13 13 13 13 13 13 12 12 12 12 12
17 17 17 17 16 17 16 16 16 16 16 16 16 15 15 15 15 15 15 15 15 15 14 14 14 14 14 14 14 14 13 13 13 13 13 12 12 12 12 12 12 12 11
Wind_Speed
2 2 1 2 2 3 3 3 3 3 3 3 2 2 2 2 2 2 2 4 5 6 6 7 7 7 8 8 8 8 8 8 7 8 8 7 7 7 7 7 7 7 7
2 2 2 1 1 2 3 3 3 3 2 2 2 2 2 2 2 2 2 2 3 5 6 6 6 7 7 8 8 8 7 7 7 8 7 7 7 7 7 7 8 7 6
4 3 2 2 1 2 3 3 3 3 2 2 2 2 2 2 2 1 1 1 1 2 3 4 5 6 7 7 8 7 7 7 7 7 7 8 8 7 6 7 7 6 6
4 3 3 2 1 3 3 3 2 3 2 2 2 1 2 1 1 1 1 1 1 0 1 2 3 5 5 5 6 6 6 6 6 7 7 7 8 8 7 7 7 6 6
4 4 3 2 3 3 3 2 3 3 3 3 2 2 2 1 1 1 1 1 1 1 1 2 2 3 4 4 4 5 5 5 6 6 6 6 6 6 6 6 7 7 6
4 4 3 2 3 3 2 2 3 3 3 3 3 3 2 2 1 1 1 1 1 1 1 1 1 2 3 4 4 4 4 5 6 6 6 6 6 6 6 6 7 7 7
4 4 3 3 3 3 3 3 4 4 2 2 3 2 3 3 2 1 1 1 1 1 1 1 1 1 2 3 4 4 4 5 6 6 6 6 6 6 7 6 7 7 7
4 4 3 3 3 3 3 3 3 2 1 2 2 2 1 2 2 2 2 1 1 1 1 1 1 1 1 1 2 3 3 3 4 5 6 6 6 7 7 7 7 7 7
4 3 3 3 3 3 3 3 3 3 2 1 1 2 2 1 1 2 2 1 1 1 1 1 1 1 1 1 2 3 3 3 3 4 4 5 5 6 6 6 7 7 7
3 3 3 3 3 3 3 3 2 2 3 2 1 1 1 2 2 0 1 1 1 1 0 0 0 1 1 1 1 2 2 3 2 2 2 3 3 3 4 4 4 4 5
2 2 3 3 3 2 3 3 2 2 2 2 2 1 1 1 1 2 1 1 1 1 1 0 0 0 1 1 1 2 3 3 3 3 3 2 2 2 2 2 3 3 3
1 1 2 2 2 2 2 2 2 3 2 2 2 2 2 2 2 2 2 1 1 1 1 0 0 0 1 1 2 3 4 3 3 3 3 2 2 2 2 2 2 2 2
0 0 1 1 2 2 2 2 2 2 2 2 2 1 2 2 2 2 3 1 0 1 1 1 1 1 1 1 2 3 3 4 4 3 3 3 2 2 2 2 2 2 2
1 1 2 1 1 2 2 2 2 2 2 2 2 1 1 1 2 3 3 3 1 0 1 2 1 1 2 2 2 3 3 4 4 4 4 3 3 2 2 2 2 2 2
2 2 2 2 1 2 2 2 2 1 2 1 1 1 1 1 1 2 2 3 3 1 1 1 1 2 2 2 2 3 3 3 4 4 4 4 3 3 2 2 2 1 1
2 3 2 2 2 2 2 2 2 2 3 2 1 2 1 0 1 1 2 2 2 2 1 1 2 2 1 1 1 2 3 3 4 4 4 4 4 3 3 2 2 2 2
3 3 2 3 2 2 2 2 2 2 3 2 1 2 1 1 1 1 1 1 1 2 2 1 1 1 0 0 1 0 1 2 2 4 4 4 4 4 3 3 3 3 3
3 3 3 3 2 2 2 3 2 2 3 2 1 2 1 1 1 1 1 1 1 2 2 2 1 0 0 0 1 1 1 1 2 3 4 4 4 4 5 5 5 4 4
2 2 3 3 2 2 2 2 3 2 2 2 2 2 1 2 1 1 1 1 1 1 2 2 1 0 0 1 1 1 1 1 1 1 2 3 4 5 5 6 6 6 5
2 2 2 2 2 2 2 2 3 3 2 2 1 1 1 2 2 2 1 1 1 1 1 2 1 0 0 1 1 0 1 1 1 1 1 2 3 4 5 6 6 6 6
3 3 2 2 2 2 2 3 3 3 3 2 1 1 1 2 2 2 2 2 2 2 2 1 1 1 0 0 1 1 1 1 1 1 1 2 2 3 4 5 6 6 6
3 3 3 3 2 2 3 5 5 3 3 2 2 1 1 1 1 2 2 3 3 3 3 2 1 2 3 2 1 1 1 1 2 1 1 2 2 3 3 4 5 5 6
3 3 3 2 2 2 4 5 5 4 4 3 3 2 1 0 1 1 1 1 1 2 4 3 3 3 3 3 3 2 2 2 2 1 1 2 2 3 4 4 5 4 4
3 3 3 3 3 3 4 5 5 4 3 3 3 3 2 1 1 2 1 1 1 2 3 3 4 4 4 3 4 3 3 2 2 2 2 2 2 3 3 4 4 4 4
4 4 3 4 4 4 5 6 5 3 3 3 3 3 3 3 3 4 3 2 2 2 2 3 4 4 3 3 4 2 2 1 2 2 1 2 2 2 3 3 4 4 4
4 4 4 4 5 5 6 7 7 4 3 3 2 3 4 4 4 5 4 4 3 3 2 1 1 2 2 2 4 4 4 3 2 2 2 2 2 1 2 2 2 2 3
Wind_Direction
136 130 115 108 110 113 119 117 112 101 91 92 104 119 130 137 145 157 177 184 193 199 199 197 201 204 199 193 190 189 188 186 190 193 194 194 195 197 199 197 194 192 195
154 143 123 102 102 113 125 127 127 118 113 108 105 112 126 137 140 139 159 193 210 209 208 210 208 203 196 195 194 194 192 192 194 198 197 197 197 198 203 202 200 197 199
162 147 129 127 155 128 121 111 105 100 99 99 97 99 107 119 119 126 143 162 202 217 210 210 204 197 200 201 201 198 198 197 196 196 199 201 200 201 201 200 197 190 186
148 137 129 139 146 126 127 121 114 98 90 90 82 72 85 84 89 110 112 120 134 198 205 195 192 197 200 202 206 204 197 192 196 194 194 195 199 199 201 203 199 191 191
147 145 142 158 145 132 124 131 115 115 114 105 96 75 60 56 56 85 105 108 124 133 162 191 186 190 197 201 203 203 196 187 187 187 185 186 192 195 199 200 202 201 205
147 142 147 161 147 126 121 125 117 109 113 111 93 71 55 44 58 58 72 86 104 140 142 163 192 197 202 205 206 204 196 193 188 191 192 193 194 201 205 208 207 209 213
143 146 143 143 136 136 142 131 122 111 101 103 93 63 42 50 60 48 48 59 50 70 123 156 173 178 201 211 211 201 194 197 197 196 202 204 203 206 209 208 209 213 222
148 151 143 146 140 132 125 125 132 136 133 113 121 104 34 14 22 31 41 54 39 57 85 152 159 174 197 195 209 201 197 201 203 202 204 207 208 210 212 218 221 225 229
144 147 148 152 148 145 150 154 154 155 158 113 115 138 139 201 336 6 25 33 49 57 38 58 108 132 184 197 209 215 207 216 217 216 212 209 212 218 222 228 232 234 236
129 140 146 152 155 154 157 170 163 152 149 149 115 96 135 149 149 350 353 21 33 46 27 33 93 115 136 177 176 177 191 202 199 187 180 185 189 198 209 219 230 239 241
100 132 148 153 156 157 163 165 149 149 157 166 164 148 126 111 141 163 250 343 12 348 285 277 153 108 182 204 204 199 193 199 185 173 169 175 185 188 199 222 231 235 234
71 97 138 146 154 159 168 169 162 157 165 160 159 160 164 170 177 169 188 225 297 319 329 317 206 213 208 214 212 206 199 189 173 172 180 182 191 204 221 242 255 253 246
136 158 124 140 146 157 153 147 145 148 155 153 170 180 188 200 173 159 158 173 223 314 342 330 274 247 231 233 225 210 202 189 183 187 191 186 197 220 237 257 270 269 265
194 144 123 126 132 133 134 135 138 144 140 153 166 162 171 195 175 171 169 158 154 352 348 303 309 263 249 236 235 211 207 202 197 198 206 207 213 228 238 249 258 263 268
155 136 135 130 126 118 121 127 129 131 127 139 150 145 148 184 172 178 173 172 168 193 266 288 288 291 260 239 243 217 214 209 204 209 216 215 219 225 231 232 228 233 247
152 139 133 130 119 114 122 119 118 120 115 109 120 114 102 103 115 138 165 176 181 181 216 262 254 279 265 244 241 212 216 217 220 220 222 224 224 225 234 238 236 240 246
160 152 145 131 123 120 117 116 119 119 119 111 104 119 109 98 103 108 118 141 160 165 198 266 277 292 199 350 3 223 232 235 238 227 227 227 228 235 242 245 249 253 255
156 153 143 134 137 135 131 136 139 129 134 135 126 119 121 116 105 120 138 149 167 181 184 215 267 307 259 325 319 305 298 264 246 238 227 230 235 244 251 254 257 260 263
148 146 148 151 157 151 142 150 142 136 137 141 140 146 160 141 148 166 157 150 172 158 171 178 199 163 353 27 45 5 357 326 298 261 242 247 253 258 261 260 260 261 261
157 169 169 173 176 166 153 152 146 145 141 131 133 148 163 165 179 186 175 175 162 139 141 153 154 146 278 328 82 23 346 352 326 337 314 283 272 270 267 264 259 255 253
180 181 174 179 178 170 173 165 162 157 150 143 133 156 169 163 168 176 179 183 169 166 154 152 176 157 219 239 241 217 259 314 302 276 303 310 290 282 278 269 262 256 250
187 176 184 186 185 199 174 164 161 159 160 164 173 201 198 182 185 182 172 172 174 175 181 180 202 223 242 226 213 210 220 265 288 281 268 294 282 277 277 271 270 260 253
192 191 198 188 195 201 178 175 174 172 176 183 186 194 213 229 150 175 156 146 195 206 193 192 213 232 238 225 196 206 218 226 250 272 231 273 276 273 278 275 266 251 250
195 200 205 206 205 215 190 183 180 186 192 202 205 203 201 221 215 183 181 196 239 247 227 217 226 241 244 227 209 208 215 233 272 259 214 252 273 281 290 282 270 260 263
204 207 202 203 212 230 208 189 174 181 198 219 223 217 212 222 225 187 179 207 255 282 258 231 233 245 252 226 186 166 181 200 271 268 216 234 263 283 286 275 276 274 273
208 206 210 213 212 221 212 193 178 185 203 224 233 234 223 221 217 184 182 194 227 257 266 277 277 291 274 243 202 200 204 214 243 254 209 205 233 256 279 276 284 292 293
Height
1531 1532 1533 1534 1534 1535 1536 1537 1538 1539 1540 1541 1542 1543 1544 1544 1545 1545 1546 1547 1547 1548 1548 1549 1549 1550 1551 1552 1553 1554 1556 1557 1558 1560 1561 1562 1563 1564 1565 1566 1567 1568 1569
1531 1532 1533 1534 1535 1535 1537 1538 1539 1539 1540 1542 1542 1543 1544 1544 1545 1545 1546 1547 1547 1548 1548 1548 1549 1549 1550 1552 1553 1554 1555 1556 1557 1558 1560 1561 1562 1563 1564 1565 1566 1567 1568
1532 1533 1533 1534 1535 1536 1537 1538 1539 1540 1541 1542 1543 1543 1544 1545 1545 1546 1546 1547 1547 1547 1548 1548 1548 1549 1550 1551 1552 1553 1554 1555 1556 1557 1558 1559 1560 1561 1562 1563 1564 1565 1566
1532 1533 1534 1535 1536 1537 1537 1539 1539 1541 1541 1542 1543 1544 1544 1545 1545 1546 1546 1546 1547 1547 1547 1547 1548 1548 1549 1550 1551 1551 1552 1553 1554 1555 1556 1557 1558 1559 1560 1561 1562 1563 1564
1532 1533 1534 1535 1536 1537 1538 1539 1540 1541 1542 1542 1543 1544 1544 1544 1545 1546 1546 1546 1546 1546 1547 1547 1547 1548 1548 1549 1550 1550 1551 1552 1552 1554 1555 1555 1556 1557 1558 1559 1560 1561 1562
1533 1534 1535 1536 1537 1537 1538 1539 1540 1541 1542 1542 1543 1543 1544 1544 1544 1545 1545 1546 1546 1546 1546 1547 1547 1547 1548 1548 1549 1549 1550 1550 1550 1552 1553 1554 1555 1556 1557 1557 1558 1559 1559
1533 1534 1535 1536 1537 1538 1539 1540 1540 1541 1542 1543 1543 1543 1544 1544 1544 1544 1545 1545 1545 1546 1546 1546 1547 1547 1547 1548 1548 1548 1549 1550 1550 1551 1552 1553 1553 1554 1555 1555 1556 1556 1557
1534 1535 1536 1536 1537 1538 1539 1540 1541 1541 1542 1543 1543 1543 1543 1545 1544 1544 1545 1545 1545 1545 1546 1546 1546 1547 1547 1547 1547 1548 1548 1549 1549 1550 1550 1551 1551 1552 1553 1553 1554 1554 1555
1534 1535 1536 1537 1538 1538 1539 1540 1541 1542 1542 1543 1543 1544 1544 1544 1544 1545 1545 1545 1545 1545 1545 1545 1546 1546 1546 1547 1547 1547 1548 1548 1548 1549 1549 1550 1550 1551 1551 1551 1552 1552 1552
1535 1536 1536 1537 1538 1539 1539 1540 1541 1542 1542 1543 1543 1543 1544 1544 1544 1544 1545 1545 1545 1545 1545 1545 1545 1545 1546 1546 1546 1546 1547 1547 1547 1548 1548 1548 1549 1549 1549 1549 1549 1549 1550
1535 1536 1536 1537 1538 1539 1539 1540 1541 1541 1542 1542 1543 1543 1543 1544 1544 1544 1544 1544 1544 1544 1544 1544 1544 1544 1545 1545 1545 1545 1545 1546 1546 1547 1547 1547 1547 1548 1548 1548 1548 1548 1548
1535 1535 1536 1537 1538 1538 1539 1540 1540 1541 1541 1542 1542 1543 1543 1543 1543 1543 1543 1543 1543 1543 1544 1544 1544 1543 1544 1544 1544 1544 1544 1544 1545 1546 1546 1546 1546 1546 1546 1546 1546 1546 1546
1535 1535 1536 1536 1537 1538 1539 1539 1540 1540 1541 1541 1542 1542 1542 1543 1543 1542 1542 1542 1542 1543 1543 1543 1543 1543 1543 1543 1543 1543 1543 1543 1544 1544 1545 1545 1545 1545 1545 1544 1544 1544 1544
1534 1535 1536 1536 1537 1537 1538 1539 1539 1539 1540 1541 1541 1541 1541 1542 1542 1542 1542 1542 1541 1542 1542 1542 1542 1542 1542 1542 1542 1542 1542 1542 1543 1543 1543 1543 1543 1543 1543 1543 1542 1542 1542
1534 1535 1535 1536 1536 1537 1537 1538 1538 1539 1539 1540 1540 1540 1540 1540 1541 1541 1541 1541 1542 1541 1541 1541 1541 1541 1541 1541 1541 1541 1541 1541 1542 1542 1541 1542 1541 1541 1541 1541 1540 1540 1540
1534 1534 1535 1535 1535 1536 1536 1537 1537 1538 1538 1539 1539 1539 1539 1539 1539 1540 1540 1540 1540 1540 1540 1539 1540 1540 1540 1539 1539 1540 1540 1540 1540 1540 1540 1540 1540 1539 1539 1539 1538 1538 1537
1533 1534 1534 1534 1535 1535 1535 1536 1536 1537 1537 1537 1538 1538 1538 1538 1538 1538 1538 1538 1538 1539 1538 1538 1538 1538 1538 1538 1538 1538 1538 1538 1538 1538 1538 1538 1538 1537 1537 1537 1536 1536 1535
1532 1533 1533 1533 1534 1534 1534 1535 1535 1536 1536 1536 1536 1537 1537 1537 1537 1537 1537 1537 1537 1537 1537 1536 1536 1536 1536 1536 1536 1536 1536 1536 1536 1536 1536 1535 1535 1535 1535 1534 1534 1533 1533
1531 1532 1532 1532 1533 1533 1534 1534 1534 1535 1535 1535 1535 1535 1536 1536 1536 1536 1536 1536 1536 1535 1535 1535 1535 1535 1535 1534 1534 1535 1534 1534 1534 1534 1533 1533 1533 1532 1532 1531 1531 1530 1530
1530 1530 1531 1531 1531 1532 1532 1533 1533 1533 1534 1534 1534 1534 1535 1535 1535 1535 1535 1535 1534 1534 1534 1533 1533 1533 1533 1533 1533 1532 1532 1532 1532 1531 1531 1530 1530 1530 1529 1529 1528 1527 1527
1528 1529 1529 1530 1530 1530 1531 1532 1532 1532 1532 1533 1533 1533 1533 1534 1534 1533 1533 1533 1533 1532 1532 1532 1532 1532 1532 1531 1531 1530 1530 1530 1530 1529 1529 1528 1527 1527 1526 1526 1525 1524 1524
1526 1527 1527 1528 1529 1529 1530 1530 1531 1531 1531 1531 1531 1532 1532 1532 1532 1532 1532 1532 1531 1531 1531 1530 1530 1530 1530 1530 1529 1529 1528 1528 1527 1527 1526 1525 1525 1524 1523 1522 1521 1521 1520
1524 1525 1525 1526 1527 1527 1528 1529 1529 1529 1530 1530 1530 1530 1530 1530 1530 1530 1530 1530 1530 1529 1530 1529 1529 1528 1528 1528 1528 1527 1527 1526 1525 1524 1523 1522 1522 1520 1520 1518 1518 1517 1516
1521 1522 1523 1524 1524 1525 1526 1527 1527 1527 1527 1528 1528 1528 1528 1528 1528 1528 1528 1528 1528 1528 1528 1527 1527 1526 1526 1526 1525 1525 1524 1523 1523 1522 1521 1519 1518 1517 1516 1516 1514 1513 1513
1519 1520 1521 1521 1522 1523 1523 1524 1525 1525 1525 1525 1525 1525 1525 1526 1526 1526 1526 1525 1525 1525 1526 1525 1525 1524 1523 1523 1522 1522 1521 1520 1519 1518 1518 1516 1515 1514 1513 1512 1511 1510 1509
1516 1517 1518 1519 1519 1520 1520 1521 1521 1522 1522 1522 1522 1522 1523 1523 1523 1523 1523 1523 1522 1523 1523 1522 1522 1521 1521 1520 1519 1518 1518 1517 1516 1515 1514 1513 1512 1511 1509 1509 1508 1507 1506